Regional Weather Roundup
Issued by NWS

Home | Current Version | Previous Version | Graphics & Text | Print | Product List | Glossary On
Versions: 1 2 3 4 5 6 7 8 9 10 11 12 13 14 15 16 17 18 19 20 21 22 23 24 25 26 27 28 29 30 31 32 33 34 35 36 37 38 39 40 41 42 43 44 45 46 47 48 49 50
000
ASUS43 KIND 282209
RWRIN

WEATHER ROUNDUP FOR INDIANA
NATIONAL WEATHER SERVICE INDIANAPOLIS IN
600 PM EDT THU APR 28 2016

NOTE: "FAIR" INDICATES FEW OR NO CLOUDS BELOW 12,000 FEET WITH NO
SIGNIFICANT WEATHER AND/OR OBSTRUCTIONS TO VISIBILITY.

* - STATION DOES NOT REPORT WEATHER SUCH AS PRECIPITATION OR FOG.

+ - STATION NOT QUALITY CONTROLLED BY THE NATIONAL WEATHER SERVICE.
    USE DATA WITH CAUTION...ESPECIALLY DEWPOINT AND RELATIVE
    HUMIDITY OBSERVATIONS.

INZ001>003-010>013-019-020-282300-
NORTHWEST INDIANA

CITY           SKY/WX    TMP DP  RH WIND       PRES   REMARKS
GARY /AIRPORT/ CLOUDY    50  48  93 N7        29.93R
KNOX *+        CLOUDY    55  43  62 SE3       29.90R
LA PORTE +     CLOUDY    56  49  79 E5        29.92R
MICHIGAN CITY+ CLOUDY    54  46  76 CALM      29.92R
MONTICELLO +   CLOUDY    58  50  73 N3        29.89R
RENSSELAER +   CLOUDY    57  54  88 NE5       29.90R
VALPARAISO     CLOUDY    55  48  77 NE3       29.91R

$$

LMZ046-743>745-282300-
SOUTHERN LAKE MICHIGAN

STATION/POSITION TIME  TEMP    WIND        PRES    WAVE
                       AIR SEA DIR/SP/G            HT
                 (UTC) (F)     (DEG/KT/KT) (MB)    (FT)
BURNS HARBOR     2110   47      10/  7/ 13 1013.2R
MICHIGAN CITY    2100   48     350/  9/ 10   N/A

$$

INZ004-005-014>016-021>024-282300-
NORTH CENTRAL INDIANA

CITY           SKY/WX    TMP DP  RH WIND       PRES   REMARKS
ELKHART        CLOUDY    54  48  82 E8        29.92R
GOSHEN         CLOUDY    53  46  77 E9        29.91R
LOGANSPORT +   CLOUDY    55  50  82 E3        29.91R
PERU/GRISSOM   CLOUDY    55  52  88 E6        29.89R
ROCHESTER +    CLOUDY    55  52  88 E5        29.91R
SOUTH BEND     CLOUDY    52  45  77 E8        29.92R
WARSAW +       CLOUDY    52  46  82 E7        29.91R

$$

INZ006>009-017-018-025>027-282300-
NORTHEAST INDIANA

CITY           SKY/WX    TMP DP  RH WIND       PRES   REMARKS
ANGOLA *+      CLOUDY    48  37  66 E12       29.92S
AUBURN +       CLOUDY    52  45  76 NE12      29.92R
FORT WAYNE     CLOUDY    52  47  83 NE14      29.91R
HUNTINGTON +   LGT RAIN N/A N/A N/A E5        29.90R

$$

INZ028-029-035-036-043>045-051>053-282300-
WEST CENTRAL INDIANA

CITY           SKY/WX    TMP DP  RH WIND       PRES   REMARKS
CRAWFORDSVL +  CLOUDY    64  58  81 NW8       29.88R
GREENCASTLE +  PTSUNNY   68  55  64 W6        29.87R
LAFAYETTE      PTSUNNY   63  54  72 N7        29.88R
TERRE HAUTE    MOSUNNY   70  51  51 SW15      29.87R

$$

INZ030>032-037>040-046>048-054>057-064-065-282300-
CENTRAL INDIANA

CITY           SKY/WX    TMP DP  RH WIND       PRES   REMARKS
CP ATTERBURY + MOSUNNY   72  46  40 W9G23     29.85R
COLUMBUS       SUNNY     73  50  43 W20G28    29.85R
FISHERS *+     MOSUNNY   63  59  88 N3        29.88R
FRANKFORT +      N/A     63  47  56 N5        29.90R
GREENWOOD *+   PTSUNNY   68  59  73 NW9G16    29.86R
INDIANAPOLIS   PTSUNNY   69  55  60 NW13      29.85R
-EAGLE CREEK   MOSUNNY   67  57  70 NW10      29.86R
KOKOMO *+      CLOUDY    55  48  76 E7        29.90R
MARION +       CLOUDY    53  49  87 NE8       29.91R
SHELBYVILLE    MOSUNNY   73  52  47 W15G25    29.83R
ZIONSVILLE +   PTSUNNY   61  57  88 NE8       29.89R

$$

INZ033-034-041-042-049-050-058-059-282300-
EAST CENTRAL INDIANA

CITY           SKY/WX    TMP DP  RH WIND       PRES   REMARKS
MUNCIE         CLOUDY    56  51  84 NE12      29.88R HAZE

$$

INZ060-061-067>069-081>083-085>088-282300-
SOUTHWEST INDIANA

CITY           SKY/WX    TMP DP  RH WIND       PRES   REMARKS
EVANSVILLE     SUNNY     76  52  43 W12       29.88S
HUNTINGBURG *+ MOSUNNY   73  50  43 W16G25    29.89R
WASHINGTON +   PTSUNNY   73  54  50 W15       29.87S

$$

INZ062-063-066-070>080-084-089>092-282300-
SOUTH CENTRAL AND SOUTHEAST INDIANA

CITY           SKY/WX    TMP DP  RH WIND       PRES   REMARKS
BEDFORD +      MOSUNNY   73  57  56 SW12G21   29.87R
BLOOMINGTON    SUNNY     72  48  42 W16G22    29.87R
MADISON *+     SUNNY     77  43  29 W16       29.87R
NORTH VERNON + SUNNY     73  55  53 W16       29.85R
SEYMOUR +      SUNNY     77  52  41 W21G26    29.85R

$$





USA.gov is the U.S. government's official web portal to all federal, state and local government web resources and services.